Regional Weather Roundup
Issued by NWS

Home | Current Version | Previous Version | Text Only | Print | Product List | Glossary Off
Versions: 1 2 3 4 5 6 7 8 9 10 11 12 13 14 15 16 17 18 19 20 21 22 23 24 25 26 27 28 29 30 31 32 33 34 35 36 37 38 39 40 41 42 43 44 45 46 47 48 49 50

253
ASUS45 KBOU 051007
RWRCO

WEATHER ROUNDUP FOR COLORADO
NATIONAL WEATHER SERVICE DENVER/BOULDER CO
400 AM MDT THU MAY 05 2016

NOTE: "FAIR" INDICATES FEW OR NO CLOUDS BELOW 12000 FEET WITH NO
SIGNIFICANT WEATHER AND/OR OBSTRUCTIONS TO VISIBILITY.

COZ001>005-013-030-031-051100-
...NORTHWEST COLORADO...

CITY           SKY/WX    TMP DP  RH WIND       PRES   REMARKS
CRAIG          FAIR      36  32  85 S5        30.18S
HAYDEN         FAIR      45  27  49 E12       30.19S
MEEKER         FAIR      44  29  55 E6        30.19S
MOUNT WERNER   NOT AVBL
STEAMBOAT SPGS FAIR      38  28  65 CALM      30.23S
WALDEN         FAIR      32  21  64 SE8       30.30R WCI  25
$$

COZ006>008-011-051100-
...WEST CENTRAL VALLEYS...

CITY           SKY/WX    TMP DP  RH WIND       PRES   REMARKS
GRAND JUNCTION FAIR      51  33  50 E10       30.08S
MONTROSE       FAIR      53  27  36 E13       30.17F
EAGLE          FAIR      39  28  65 CALM      30.27R
RIFLE          FAIR      44  33  65 E5        30.17S
DELTA          NOT AVBL
NUCLA          NOT AVBL
$$

COZ017>023-064>068-051100-
...SOUTHWEST COLORADO...

CITY           SKY/WX    TMP DP  RH WIND       PRES   REMARKS
DURANGO        FAIR      37  29  72 CALM      30.24S
CORTEZ         FAIR      43  28  55 NE7       30.17S
PAGOSA SPRINGS FAIR      37  28  68 CALM      30.31R
TELLURIDE      FAIR      43  22  44 SE8       30.37S
WOLF CREEK PAS FAIR      32  18  55 SW13      30.53R WCI  22
$$

COZ009-010-012-014-032>034-037-058>063-051100-
...CENTRAL COLORADO...

CITY           SKY/WX    TMP DP  RH WIND       PRES   REMARKS
ASPEN          FAIR      42  25  50 SW9       30.28S
BUENA VISTA    FAIR      38  27  63 N6        30.32R
COPPER MTN     NOT AVBL
BERTHOUD PASS  FAIR      32  23  69 NW21      30.48F WCI  20
COTTONWOOD PAS FAIR      46  19  34 SW7       30.39R
GUNNISON       FAIR      36  27  69 CALM      30.35R
KREMMLING      FAIR      32  25  74 CALM      30.31R
LEADVILLE      FAIR      26  19  74 CALM      30.38S
MONARCH PASS   FAIR      34  21  60 W18       30.59S WCI  23
SALIDA         NOT AVBL
SUNLIGHT       FAIR      41  25  52 CALM      30.44S
WILKERSON PASS FAIR      37  23  56 W6        30.47S
$$

COZ069>075-051100-
...SAN LUIS VALLEY/SANGRE DE CRISTO MOUNTAINS...

CITY           SKY/WX    TMP DP  RH WIND       PRES   REMARKS
ALAMOSA        FAIR      37  31  78 E7        30.29R
LA VETA PASS   FAIR      41  19  42 S12G22    30.38F
SAGUACHE       FAIR      41  30  65 N5        30.31R
$$

COZ035-036-038>040-051100-
...NORTHERN COLORADO FRONT RANGE...

CITY           SKY/WX    TMP DP  RH WIND       PRES   REMARKS
DENVER INTL AP FAIR      49  33  54 SW8       30.12S
DMNS CITY PARK   N/A     52  31  45 SE7       30.12S
AURORA         FAIR      49  33  53 SW5       30.14S
FRONT RANGE AP NOT AVBL
ERIE MUNI ARPT FAIR      43  38  82 CALM      30.11S
BOULDER MUN AP FAIR      52  34  50 SW5       30.11S
CENTENNIAL     FAIR      53  30  41 S12       30.14S
BROOMFIELD     FAIR      57  32  38 N5        30.13S
FORT COLLINS   FAIR      46  37  71 N7        30.12S
LONGMONT       FAIR      50  37  60 CALM      30.13R
$$

COZ041-046-047-076>085-087-088-051100-
...PIKES PEAK/PALMER DIVIDE AND SOUTHERN FOOTHILLS...

CITY           SKY/WX    TMP DP  RH WIND       PRES   REMARKS
COLO. SPRINGS  FAIR      44  32  62 N9        30.19F
A. F. ACADEMY  FAIR      37  32  81 N9        30.20F
SCHRIEVER AFB  NOT AVBL
ELLICOTT       FAIR     N/A N/A N/A NE5       30.17F
FALCON         NOT AVBL
FORT CARSON    FAIR      46  33  59 NW12      30.16F
LIMON          FAIR      36  35  96 N6        30.16F
MONUMENT HILL  FAIR      43  32  65 SW7       30.23S
TRINIDAD       FAIR      53  28  38 W12       30.15S
$$

COZ042>045-048>051-090-091-051100-
...NORTHEAST COLORADO...

CITY           SKY/WX    TMP DP  RH WIND       PRES   REMARKS
GREELEY ARPT   FAIR      45  37  76 CALM      30.10S
AKRON          FAIR      53  40  61 S12       30.10F
BURLINGTON     FAIR      47  40  76 SW10      30.12S
WRAY           NOT AVBL
STERLING       FAIR      43  41  93 CALM      30.08F
HOLYOKE        NOT AVBL
FORT MORGAN    FAIR      49  39  68 SW5       30.11S
$$

COZ086-089-092>099-051100-
...SOUTHEAST COLORADO...

CITY           SKY/WX    TMP DP  RH WIND       PRES   REMARKS
PUEBLO         FAIR      47  37  68 W8        30.12S
LA JUNTA       FAIR      50  41  71 CALM      30.09S
LAMAR          FAIR      46  43  89 E5        30.08F
SPRINGFIELD      N/A     46  39  76 S6        30.13S
$$




USA.gov is the U.S. government's official web portal to all federal, state and local government web resources and services.